Other Public Products
Issued by NWS Grand Forks, ND

Home | Current Version | Previous Version | Text Only | Print | Product List | Glossary Off
Versions: 1 2 3 4 5 6 7 8 9 10 11 12 13 14 15 16 17 18 19 20 21 22 23 24 25 26 27 28 29 30 31 32 33 34 35 36 37 38 39 40 41 42 43 44 45 46 47 48 49 50

000
FPUS83 KFGF 141610
OPUFGF
PRAIRIE TO PINES WEATHER ROUNDUP
NATIONAL WEATHER SERVICE EASTERN NORTH DAKOTA/GRAND FORKS ND
1000 AM CST THU DEC 14 2017

 **SATELLITE DATA USED TO AUGMENT SKY COVER AT AUTOMATED STATIONS**
 *****  WEATHER ACROSS EASTERN NORTH DAKOTA  *****

CITY           SKY/WX    TMP DP  RH WIND       PRES   REMARKS
GRAND FORKS    FLURRIES  23  18  81 N23       30.07R WCI   7
GRND FORKS AFB CLOUDY    23  18  80 N16       30.07R WCI   9
GRND FORKS NWS NOT AVBL
BUXTON         NOT AVBL
DEVILS LAKE    CLOUDY    23  21  92 N13       30.07R WCI  11
FARGO          CLOUDY    23  19  85 NW6       30.06R WCI  16
WAHPETON ARPT    N/A     21  18  86 CALM      30.06R
$$

 *****  WEATHER ACROSS CENTRAL AND WESTERN NORTH DAKOTA  *****

CITY           SKY/WX    TMP DP  RH WIND       PRES   REMARKS
JAMESTOWN      MIX PCPN  27  25  92 NE14      30.04R FOG     WCI  16
BISMARCK       CLOUDY    33  27  78 N13G21    30.11R WCI  24
MINOT          CLOUDY    30  22  72 NW17      30.12R WCI  18
MINOT AFB      CLOUDY    29  22  74 NW17      30.10R WCI  17
GARRISON         N/A     31  23  72 NW23G30   30.11R WCI  18
WILLISTON      CLOUDY    32  25  75 NW14      30.20R WCI  22
DICKINSON      CLOUDY    31  27  85 N16G25    30.13R WCI  20
HETTINGER      CLOUDY    31  27  85 NW20G29   30.15R WCI  19
$$

 *****  OTHER OBSERVATIONS NORTHEAST NORTH DAKOTA  *****

CITY           SKY/WX    TMP DP  RH WIND       PRES   REMARKS
WALHALLA       FAIR      19  19 100 N18       30.09R WCI   4
LANGDON        CLOUDY    19  19 100 N17       30.04S WCI   4
CAVALIER       LGT SNOW  18  16  93 N14       30.08R WCI   4
GRAFTON        CLOUDY    19  16  86 N16G22    30.10R WCI   5
CANDO          CLOUDY    25  25 100 NW7       30.09R WCI  17
FORT TOTTEN      N/A     24  21  89 N5        29.95S WCI  18
ROLLA          CLOUDY    23  23 100 NW14      30.05S WCI  11
RUGBY          CLOUDY    27  23  86 N16       30.07R WCI  14
 ***** THE ABOVE OBSERVATIONS ARE NON NWS ARE NOT QUALITY
        CONTROLLED AND MAY MIS-REPORT RAIN FOR SNOW...
$$

 *****  OTHER OBSERVATIONS SOUTHEAST NORTH DAKOTA *****

CITY           SKY/WX    TMP DP  RH WIND       PRES   REMARKS
COOPERSTOWN    CLOUDY    25  23  93 NW9       30.06R WCI  15
VALLEY CITY    DRIZZLE   23  23 100 N9        30.07R WCI  13
OAKES            N/A     28  28 100 W5        30.03R WCI  23
GWINNER          N/A     25  23  93 NE7       30.05R WCI  17
SHEYENNE NWR     N/A     23  22  96 N3        29.95S
BUFFALO        NOT AVBL
WYNDMERE       NOT AVBL
 ***** THE ABOVE OBSERVATIONS ARE NON NWS ARE NOT QUALITY
       CONTROLLED AND MAY MIS-REPORT RAIN FOR SNOW...
$$

  *****  WEATHER ACROSS NORTHERN MINNESOTA  *****

CITY           SKY/WX    TMP DP  RH WIND       PRES   REMARKS
FLAG ISLAND    FLURRIES   7   3  85 NW10      29.99R WCI  -8
WARROAD        FLURRIES  10   7  85 NW8       30.01R WCI  -1
ROSEAU         LGT SNOW  12   9  85 N9        30.02R WCI   0
HALLOCK        CLOUDY    18  12  79 N13       30.07R WCI   4
THF RVR FALLS  FLURRIES  18  15  88 NW18      30.04R WCI   2
HALSTAD        NOT AVBL
FOSSTON        CLOUDY    16  12  86 W7        30.02R WCI   6
BAUDETTE       PTSUNNY    9   6  88 NW9       29.98R WCI  -4
WASKISH        LGT SNOW  12  10  92 W7        29.98R WCI   2
CROOKSTON      CLOUDY    19  18  93 N15       30.07R WCI   5
$$
  *****  WEATHER ACROSS CENTRAL AND WEST MINNESOTA  *****

CITY           SKY/WX    TMP DP  RH WIND       PRES   REMARKS
BEMIDJI        FLURRIES  15  12  89 NW10      29.98R WCI   2
PARK RAPIDS    CLOUDY    16  12  84 NW9       29.98R WCI   4
WADENA         FLURRIES  16  12  86 W7        30.00S WCI   6
DETROIT LAKES  FLURRIES  19  18  93 NW10      30.02R WCI   8
MOORHEAD       LGT RAIN  21  18  86 CALM      30.07R
FERGUS FALLS   CLOUDY    18  16  93 NW3       30.08R
ELBOW LAKE     CLOUDY    18  17  95 NW6       30.04R WCI  10
MORRIS MN      PTSUNNY   21  18  86 NW5       30.04R WCI  15
STAPLES        FLURRIES  16  10  79 W9        30.01R WCI   4
WHEATON        CLOUDY    21  18  86 CALM      30.07R
$$
  *****  WEATHER ELSEWHERE ACROSS MINNESOTA  *****

CITY           SKY/WX    TMP DP  RH WIND       PRES   REMARKS
DULUTH         FLURRIES  14  12  92 W8        29.95R WCI   3
INTRNTL FALLS  PTSUNNY   13   7  77 W5        29.96S WCI   5
ELY            FLURRIES  12   9  85 W6        29.93S WCI   3
CLOQUET        FLURRIES  16  10  79 W7        29.97S WCI   6
BRAINERD       LGT SNOW  16  12  84 W7        30.00S FOG     WCI   6
HIBBING        LGT SNOW  13   8  81 VRB6      29.96S WCI   4
ALEXANDRIA     CLOUDY    17  14  88 NW7       30.02R WCI   8
SAINT CLOUD    CLOUDY    19  15  84 W3        30.02R
MINNEAPOLIS    CLOUDY    19  15  84 W5        30.06R WCI  12
$$

  *****  WEATHER ACROSS SOUTH DAKOTA  *****

CITY           SKY/WX    TMP DP  RH WIND       PRES   REMARKS
SIOUX FALLS    CLOUDY    31  27  85 CALM      30.04R
BROOKINGS      CLOUDY    29  27  92 SW3       30.01R
WATERTOWN      CLOUDY    28  27  96 NW3       30.00R
HURON          CLOUDY    32  28  85 NW6       30.05R
SISSETON         N/A     23  21  92 SE3       30.03R
ABERDEEN       CLOUDY    31  29  92 NW8       30.03R WCI  23
MITCHELL       LGT SNOW  33  27  78 W7        30.06R
PIERRE         CLOUDY    35  33  92 NW16      30.07R
MOBRIDGE       CLOUDY    36  29  75 NW16      30.05R
RAPID CITY     FLURRIES  33  23  66 NW35G47   30.16R WCI  18
$$

  *****  SOME WEATHER IN NEARBY STATES *****

CITY           SKY/WX    TMP DP  RH WIND       PRES   REMARKS
GLASGOW MT     CLOUDY    31  26  82 W5        30.29R
GREAT FALLS MT FAIR      29  22  75 S13       30.34F WCI  19
CHEYENNE WY    CLOUDY    30  21  69 NW17G26   30.17R WCI  18
SCOTTSBLUFF NE FAIR      36  22  56 N32G45    30.19R
OMAHA NE       PTSUNNY   36  27  69 CALM      30.08R
DES MOINES IA  CLOUDY    27  16  63 CALM      30.10R
DAVENPORT IA   PTSUNNY   23  15  71 NE5       30.12R WCI  17
CHICAGO IL     PTSUNNY   22   9  57 N10       30.07R WCI  11
EAU CLAIRE WI  CLOUDY    16  14  92 SW3       30.04R
LA CROSSE WI   CLOUDY    17  13  84 S9        30.09R WCI   6
$$

  *****  SOME NATIONAL WEATHER *****

CITY           SKY/WX    TMP DP  RH WIND       PRES   REMARKS
LA GUARDIA NY  PTSUNNY   29  21  72 N15       29.72R WCI  18
RALEIGH NC     FAIR      49  24  37 W6        29.86R
ATLANTA GA     FAIR      50  31  48 W6        29.94R
NEW ORLEANS LA PTSUNNY   59  46  62 CALM      30.03S
OKLAHOMA CITY  PTSUNNY   44  27  51 N9        30.17R
ALBUQUERQUE NM PTSUNNY   40  12  32 E24G33    30.10R
SALT LAKE CITY FAIR      28  25  88 SE5       30.43R FOG     WCI  23
LOS ANGELES CA FAIR      54  35  48 E7        30.02R
BOISE ID       CLOUDY    25  22  88 S10       30.56R FOG     WCI  15
SEATTLE WA     MOCLDY    39  35  86 N3        30.33S
$$

*** WEATHER ACROSS MANITOBA...SASKATCHEWAN AND ONTARIO ***
                ***ONTARIO***

CITY           SKY/WX    TMP DP  RH WIND       PRES   REMARKS
GERALDTON      MOSUNNY   -4  -8  84 W6        29.87S WCI -16
THUNDER BAY    PTSUNNY    3   0  85 S5        29.98F WCI  -6
SIOUX LOOKOUT  CLOUDY     1  -2  85 CALM      29.90F
TORONTO        MOSUNNY   10   1  67 NW3       29.91R
BIG TROUT LK   FLURRIES  -6  -9  84 NW7       29.86F WCI -20
PICKLE LAKE    CLOUDY    -2  -6  84 W6        29.84S WCI -14
DRYDEN         FLURRIES   5   3  92 W8        29.91S WCI  -8
KENORA         FLURRIES   7   5  92 NW7       29.95R WCI  -5
$$
                *** MANITOBA***

CITY           SKY/WX    TMP DP  RH WIND       PRES   REMARKS
BRANDON        FLURRIES  23  19  86 W7        30.07S WCI  15
DAUPHIN        CLOUDY    19  18  93 W3        30.08S
ISLAND LAKE    LGT SNOW   5   0  78 NW8       29.95R WCI  -8
PILOT MOUND      N/A     18  16  93 N7          N/A  WCI   8
THE PAS        FLURRIES  16  10  79 NW9       30.09R WCI   4
THOMPSON       FLURRIES   1  -2  85 N6        30.06R WCI -10
WINNIPEG       LGT SNOW  12   9  85 N6        30.08R WCI   3
LYNN LAKE      FLURRIES   3   1  92 N9        30.11R WCI -11
CHURCHILL      LGT SNOW  -6 -11  77 N18G25    30.06S BLWGSNOWWCI -29
GILLAM         CLOUDY    -9 -15  77 N15       30.06R WCI -31
$$
                ***SASKATCHEWAN***

CITY           SKY/WX    TMP DP  RH WIND       PRES   REMARKS
ESTEVAN        CLOUDY    28  25  86 W9        30.14S WCI  20
KINDERSLEY     PTCLDY    21  18  86 W7        30.23S WCI  13
LLOYDMINSTER   PTCLDY    19  19 100 W12       30.16F WCI   7
PRINCE ALBERT  MOCLDY    27  19  74 N14       30.16R WCI  15
REGINA         MOCLDY    27  25  93 W13G21    30.15R WCI  16
YORKTON        CLOUDY    28  27  93 NW13      30.06S W



USA.gov is the U.S. government's official web portal to all federal, state and local government web resources and services.